START_TIME,STEP,MOV.,H8,t_acc.,H43,t_acc.,M25,t_acc.,H9,t_acc.
1979-07-20 03:00:29.300 ,1,0,0.,12.0,0.,12.0,0.,12.0,0.,12.0
1979-07-20 03:00:41.300 ,1,0,0.,12.0,0.,12.0,0.,12.0,0.,12.0
1979-07-20 03:00:53.300 ,2,0,0.,12.0,0.,12.0,0.,12.0,0.,12.0
1979-07-20 03:01:05.300 ,2,0,0.,12.0,0.,12.0,0.,12.0,0.,12.0
1979-07-20 03:01:17.300 ,2,0,0.,12.0,0.,12.0,0.,12.0,0.,12.0
1979-07-20 03:01:29.300 ,2,0,0.,12.0,0.,12.0,0.,12.0,0.,12.0
1979-07-20 03:01:41.300 ,3,0,0.,12.0,0.,12.0,0.,12.0,0.,12.0
1979-07-20 03:01:53.300 ,3,0,0.,12.0,0.,12.0,0.,12.0,0.,12.0
1979-07-20 03:02:05.300 ,3,0,0.,12.0,0.,12.0,0.,12.0,0.,12.0
1979-07-20 03:02:17.300 ,3,0,0.,12.0,0.,12.0,0.,12.0,0.,12.0
1979-07-20 03:02:29.300 ,4,0,0.,12.0,0.,12.0,0.,12.0,0.,12.0
1979-07-20 03:02:41.300 ,4,0,0.,12.0,0.,12.0,0.,12.0,0.,12.0
1979-07-20 03:02:53.300 ,4,0,0.,12.0,0.,12.0,0.,12.0,0.,12.0
1979-07-20 03:03:05.300 ,4,0,0.,12.0,0.,12.0,0.,12.0,0.,12.0
1979-07-20 03:03:17.300 ,5,0,0.,12.0,0.,12.0,0.,12.0,0.,12.0
1979-07-20 03:03:29.300 ,5,0,0.,12.0,0.,12.0,0.,12.0,0.,12.0
1979-07-20 03:03:41.300 ,5,0,0.,12.0,0.,12.0,0.,12.0,0.,12.0
1979-07-20 03:03:53.300 ,5,0,0.,12.0,0.,12.0,0.,12.0,0.,12.0
1979-07-20 03:04:05.300 ,6,0,0.,12.0,0.,12.0,0.,12.0,0.,12.0
1979-07-20 03:04:17.300 ,6,0,0.,12.0,0.,12.0,0.,12.0,0.,12.0
1979-07-20 03:04:29.300 ,6,0,0.,12.0,0.,12.0,0.,12.0,0.,12.0
1979-07-20 03:04:41.300 ,6,0,0.,12.0,0.,12.0,0.,12.0,0.,12.0
1979-07-20 03:04:53.300 ,7,0,0.,12.0,0.,12.0,0.,12.0,0.,12.0
1979-07-20 03:05:05.300 ,7,0,0.,12.0,0.,12.0,0.,12.0,0.,12.0
1979-07-20 03:05:17.300 ,7,0,0.,12.0,0.,12.0,0.,12.0,0.,12.0
1979-07-20 03:05:29.300 ,7,0,0.,12.0,0.,12.0,0.,12.0,0.,12.0
1979-07-20 03:05:41.300 ,7,0,0.,12.0,0.,12.0,0.,12.0,0.,12.0
1979-07-20 03:05:53.300 ,7,0,0.,12.0,0.,12.0,0.,12.0,0.,12.0
1979-07-20 03:06:05.300 ,7,0,0.,12.0,0.,12.0,0.,12.0,0.,12.0
1979-07-20 03:06:17.300 ,7,0,0.,12.0,0.,12.0,0.,12.0,0.,12.0
1979-07-20 03:06:29.300 ,6,0,0.,12.0,0.,12.0,0.,12.0,0.,12.0
1979-07-20 03:06:41.300 ,6,0,0.,12.0,0.,12.0,0.,12.0,0.,12.0
1979-07-20 03:06:53.300 ,6,0,0.,12.0,0.,12.0,0.,12.0,0.,12.0
1979-07-20 03:07:05.300 ,6,0,0.,12.0,0.,12.0,0.,12.0,0.,12.0
1979-07-20 03:07:17.300 ,5,0,0.,12.0,0.,12.0,0.,12.0,0.,12.0
1979-07-20 03:07:29.300 ,5,0,0.,12.0,0.,12.0,0.,12.0,0.,12.0
1979-07-20 03:07:41.300 ,5,0,0.,12.0,0.,12.0,0.,12.0,0.,12.0
1979-07-20 03:07:53.300 ,5,0,0.,12.0,0.,12.0,0.,12.0,0.,12.0
1979-07-20 03:08:05.300 ,4,0,0.,12.0,0.,12.0,0.,12.0,0.,12.0
1979-07-20 03:08:17.300 ,4,0,0.,12.0,0.,12.0,0.,12.0,0.,12.0
1979-07-20 03:08:29.300 ,4,0,0.,12.0,0.,12.0,0.,12.0,0.,12.0
1979-07-20 03:08:41.300 ,4,0,0.,12.0,0.,12.0,0.,12.0,0.,12.0
1979-07-20 03:08:53.300 ,3,0,0.,12.0,0.,12.0,0.,12.0,0.,12.0
1979-07-20 03:09:05.300 ,3,0,0.,12.0,0.,12.0,0.,12.0,0.,12.0
1979-07-20 03:09:17.300 ,3,0,0.,12.0,0.,12.0,0.,12.0,0.,12.0
1979-07-20 03:09:29.300 ,3,0,0.,12.0,0.,12.0,0.,12.0,0.,12.0
1979-07-20 03:09:41.300 ,2,0,0.,12.0,0.,12.0,0.,12.0,0.,12.0
1979-07-20 03:09:53.300 ,2,0,0.,12.0,0.,12.0,0.,12.0,0.,12.0
1979-07-20 03:10:05.300 ,2,0,0.,12.0,0.,12.0,0.,12.0,0.,12.0
1979-07-20 03:10:17.300 ,2,0,0.,12.0,0.,12.0,0.,12.0,0.,12.0
1979-07-20 03:10:29.300 ,1,0,0.,12.0,0.,12.0,0.,12.0,0.,12.0
1979-07-20 03:10:41.300 ,1,0,0.,12.0,0.,12.0,0.,12.0,0.,12.0
1979-07-20 03:10:53.300 ,1,0,0.,12.0,0.,12.0,0.,12.0,0.,12.0
1979-07-20 03:11:05.300 ,1,0,0.,12.0,0.,12.0,0.,12.0,0.,12.0
1979-07-20 03:11:17.300 ,0,0,0.,12.0,0.,12.0,0.,12.0,0.,12.0
1979-07-20 03:11:29.300 ,0,0,0.,12.0,0.,12.0,0.,12.0,0.,12.0
1979-07-20 03:11:41.300 ,0,0,0.,12.0,0.,12.0,0.,12.0,0.,12.0
1979-07-20 03:11:53.300 ,0,0,0.,12.0,0.,12.0,0.,12.0,0.,12.0
1979-07-20 03:12:05.300 ,0,0,0.,12.0,0.,12.0,0.,12.0,0.,12.0
1979-07-20 03:12:17.300 ,0,0,0.,12.0,0.,12.0,0.,12.0,0.,12.0
1979-07-20 03:12:29.300 ,0,0,0.,12.0,0.,12.0,0.,12.0,0.,12.0
1979-07-20 03:12:41.300 ,0,0,0.,12.0,0.,12.0,0.,12.0,0.,12.0
1979-07-20 03:12:53.300 ,0,0,0.,12.0,0.,12.0,0.,12.0,0.,12.0
1979-07-20 03:13:05.300 ,0,0,0.,12.0,0.,12.0,0.,12.0,0.,12.0
1979-07-20 03:13:17.300 ,0,0,0.,12.0,0.,12.0,0.,12.0,0.,12.0
1979-07-20 03:13:29.300 ,0,0,0.,12.0,0.,12.0,0.,12.0,0.,12.0
1979-07-20 03:13:41.300 ,2,0,0.,12.0,0.,12.0,0.,12.0,0.,12.0
1979-07-20 03:13:53.300 ,2,0,0.,12.0,0.,12.0,0.,12.0,0.,12.0
1979-07-20 03:14:05.300 ,2,0,0.,12.0,0.,12.0,0.,12.0,0.,12.0
1979-07-20 03:14:17.300 ,2,0,0.,12.0,0.,12.0,0.,12.0,0.,12.0
1979-07-20 03:14:29.300 ,3,0,0.,12.0,0.,12.0,0.,12.0,0.,12.0
1979-07-20 03:14:41.300 ,3,0,0.,12.0,0.,12.0,0.,12.0,0.,12.0
1979-07-20 03:14:53.300 ,3,0,0.,12.0,0.,12.0,0.,12.0,0.,12.0
1979-07-20 03:15:05.300 ,3,0,0.,12.0,0.,12.0,0.,12.0,0.,12.0
1979-07-20 03:15:17.300 ,4,0,0.,12.0,0.,12.0,0.,12.0,0.,12.0
1979-07-20 03:15:29.300 ,4,0,0.,12.0,0.,12.0,0.,12.0,0.,12.0
1979-07-20 03:15:41.300 ,4,0,0.,12.0,0.,12.0,0.,12.0,0.,12.0
1979-07-20 03:15:53.300 ,4,0,0.,12.0,0.,12.0,0.,12.0,0.,12.0
1979-07-20 03:16:05.300 ,5,0,0.,12.0,0.,12.0,0.,12.0,0.,12.0
1979-07-20 03:16:17.300 ,5,0,0.,12.0,0.,12.0,0.,12.0,0.,12.0
1979-07-20 03:16:29.300 ,5,0,0.,12.0,0.,12.0,0.,12.0,0.,12.0
1979-07-20 03:16:41.300 ,5,0,0.,12.0,0.,12.0,0.,12.0,0.,12.0
1979-07-20 03:16:53.300 ,6,0,0.,12.0,0.,12.0,0.,12.0,0.,12.0
1979-07-20 03:17:05.300 ,6,0,0.,12.0,0.,12.0,0.,12.0,0.,12.0
1979-07-20 03:17:17.300 ,6,0,0.,12.0,0.,12.0,0.,12.0,0.,12.0
1979-07-20 03:17:29.300 ,6,0,0.,12.0,0.,12.0,0.,12.0,0.,12.0
1979-07-20 03:17:41.300 ,7,0,0.,12.0,0.,12.0,0.,12.0,0.,12.0
1979-07-20 03:17:53.300 ,7,0,0.,12.0,0.,12.0,0.,12.0,0.,12.0
1979-07-20 03:18:05.300 ,7,0,0.,12.0,0.,12.0,0.,12.0,0.,12.0
1979-07-20 03:18:17.300 ,7,0,0.,12.0,0.,12.0,0.,12.0,0.,12.0
1979-07-20 03:18:29.300 ,7,0,0.,12.0,0.,12.0,0.,12.0,0.,12.0
1979-07-20 03:18:41.300 ,7,0,0.,12.0,0.,12.0,0.,12.0,0.,12.0
1979-07-20 03:18:53.300 ,7,0,0.,12.0,0.,12.0,0.,12.0,0.,12.0
1979-07-20 03:19:05.300 ,7,0,0.,12.0,0.,12.0,0.,12.0,0.,12.0
1979-07-20 03:19:17.300 ,0,0,0.,12.0,0.,12.0,0.,12.0,0.,12.0
1979-07-20 03:19:29.300 ,0,0,0.,12.0,0.,12.0,0.,12.0,0.,12.0
1979-07-20 03:19:41.300 ,0,0,0.,12.0,0.,12.0,0.,12.0,0.,12.0
1979-07-20 03:19:53.300 ,0,0,0.,12.0,0.,12.0,0.,12.0,0.,12.0
1979-07-20 03:20:05.300 ,5,0,0.,12.0,0.,12.0,0.,12.0,0.,12.0
1979-07-20 03:20:17.300 ,5,0,0.,12.0,0.,12.0,0.,12.0,0.,12.0
1979-07-20 03:20:29.300 ,5,0,0.,12.0,0.,12.0,0.,12.0,0.,12.0
1979-07-20 03:20:41.300 ,5,0,0.,12.0,0.,12.0,0.,12.0,0.,12.0
1979-07-20 03:20:53.300 ,4,0,0.,12.0,0.,12.0,0.,12.0,0.,12.0
1979-07-20 03:21:05.300 ,4,0,0.,12.0,0.,12.0,0.,12.0,0.,12.0
1979-07-20 03:21:17.300 ,4,0,0.,12.0,0.,12.0,0.,12.0,0.,12.0
1979-07-20 03:21:29.300 ,4,0,0.,12.0,0.,12.0,0.,12.0,0.,12.0
1979-07-20 03:21:41.300 ,3,0,0.,12.0,0.,12.0,0.,12.0,0.,12.0
1979-07-20 03:21:53.300 ,3,0,0.,12.0,0.,12.0,0.,12.0,0.,12.0
1979-07-20 03:22:05.300 ,3,0,0.,12.0,0.,12.0,0.,12.0,0.,12.0
1979-07-20 03:22:17.300 ,3,0,0.,12.0,0.,12.0,0.,12.0,0.,12.0
1979-07-20 03:22:29.300 ,2,0,0.,12.0,0.,12.0,0.,12.0,0.,12.0
1979-07-20 03:22:41.300 ,2,0,0.,12.0,0.,12.0,0.,12.0,0.,12.0
1979-07-20 03:22:53.300 ,2,0,0.,12.0,0.,12.0,0.,12.0,0.,12.0
1979-07-20 03:23:05.300 ,2,0,0.,12.0,0.,12.0,0.,12.0,0.,12.0
1979-07-20 03:23:17.300 ,1,0,0.,12.0,0.,12.0,0.,12.0,0.,12.0
1979-07-20 03:23:29.300 ,1,0,0.,12.0,0.,12.0,0.,12.0,0.,12.0
1979-07-20 03:23:41.300 ,1,0,0.,12.0,0.,12.0,0.,12.0,0.,12.0
1979-07-20 03:23:53.300 ,1,0,0.,12.0,0.,12.0,0.,12.0,0.,12.0
1979-07-20 03:24:05.300 ,0,0,0.,12.0,0.,12.0,0.,12.0,0.,12.0
1979-07-20 03:24:17.300 ,0,0,0.,12.0,0.,12.0,0.,12.0,0.,12.0
1979-07-20 03:24:29.300 ,0,0,0.,12.0,0.,12.0,0.,12.0,0.,12.0
1979-07-20 03:24:41.300 ,0,0,0.,12.0,0.,12.0,0.,12.0,0.,12.0
1979-07-20 03:24:53.300 ,0,0,0.,12.0,0.,12.0,0.,12.0,0.,12.0
1979-07-20 03:25:05.300 ,0,0,0.,12.0,0.,12.0,0.,12.0,0.,12.0
1979-07-20 03:25:17.300 ,0,0,0.,12.0,0.,12.0,0.,12.0,0.,12.0
1979-07-20 03:25:29.300 ,0,0,0.,12.0,0.,12.0,0.,12.0,0.,12.0
1979-07-20 03:25:41.300 ,1,0,0.,12.0,0.,12.0,0.,12.0,0.,12.0
1979-07-20 03:25:53.300 ,1,0,0.,12.0,0.,12.0,0.,12.0,0.,12.0
1979-07-20 03:26:05.300 ,1,0,0.,12.0,0.,12.0,0.,12.0,0.,12.0
1979-07-20 03:26:17.300 ,1,0,0.,12.0,0.,12.0,0.,12.0,0.,12.0
1979-07-20 03:26:29.300 ,2,0,0.,12.0,0.,12.0,0.,12.0,0.,12.0
1979-07-20 03:26:41.300 ,2,0,0.,12.0,0.,12.0,0.,12.0,0.,12.0
1979-07-20 03:26:53.300 ,2,0,0.,12.0,0.,12.0,0.,12.0,0.,12.0
1979-07-20 03:27:05.300 ,2,0,0.,12.0,0.,12.0,0.,12.0,0.,12.0
1979-07-20 03:27:17.300 ,3,0,0.,12.0,0.,12.0,0.,12.0,0.,12.0
1979-07-20 03:27:29.300 ,3,0,0.,12.0,0.,12.0,0.,12.0,0.,12.0
1979-07-20 03:27:41.300 ,3,0,0.,12.0,0.,12.0,0.,12.0,0.,12.0
1979-07-20 03:27:53.300 ,3,0,0.,12.0,0.,12.0,0.,12.0,0.,12.0
1979-07-20 03:28:05.300 ,4,0,0.,12.0,0.,12.0,0.,12.0,0.,12.0
1979-07-20 03:28:17.300 ,4,0,0.,12.0,0.,12.0,0.,12.0,0.,12.0
1979-07-20 03:28:29.300 ,4,0,0.,12.0,0.,12.0,0.,12.0,0.,12.0
1979-07-20 03:28:41.300 ,4,0,0.,12.0,0.,12.0,0.,12.0,0.,12.0
1979-07-20 03:28:53.300 ,5,0,0.,12.0,0.,12.0,0.,12.0,0.,12.0
1979-07-20 03:29:05.300 ,5,0,0.,12.0,0.,12.0,0.,12.0,0.,12.0
1979-07-20 03:29:17.300 ,5,0,0.,12.0,0.,12.0,0.,12.0,0.,12.0
1979-07-20 03:29:29.300 ,5,0,0.,12.0,0.,12.0,0.,12.0,0.,12.0
1979-07-20 03:29:41.300 ,6,0,0.,12.0,0.,12.0,0.,12.0,0.,12.0
1979-07-20 03:29:53.300 ,6,0,0.,12.0,0.,12.0,0.,12.0,0.,12.0
1979-07-20 03:30:05.300 ,6,0,0.,12.0,0.,12.0,0.,12.0,0.,12.0
1979-07-20 03:30:17.300 ,6,0,0.,12.0,0.,12.0,0.,12.0,0.,12.0
1979-07-20 03:30:29.300 ,7,0,0.,12.0,0.,12.0,0.,12.0,0.,12.0
1979-07-20 03:30:41.300 ,7,0,0.,12.0,0.,12.0,0.,12.0,0.,12.0
1979-07-20 03:30:53.300 ,7,0,0.,12.0,0.,12.0,0.,12.0,0.,12.0
1979-07-20 03:31:05.300 ,7,0,0.,12.0,0.,12.0,0.,12.0,0.,12.0
1979-07-20 03:31:17.300 ,3,1,0.,12.0,0.,12.0,0.,12.0,0.,12.0
1979-07-20 03:31:29.300 ,3,1,0.,12.0,0.,12.0,0.,12.0,0.,12.0
1979-07-20 03:31:41.300 ,0,1,0.,12.0,0.,12.0,0.,12.0,0.,12.0
1979-07-20 03:31:53.300 ,0,1,0.,12.0,0.,12.0,0.,12.0,0.,12.0
1979-07-20 03:32:05.300 ,4,1,0.,12.0,0.,12.0,0.,12.0,0.,12.0
1979-07-20 03:32:17.300 ,4,1,0.,12.0,0.,12.0,0.,12.0,0.,12.0
1979-07-20 03:32:29.300 ,7,1,0.,12.0,0.,12.0,0.,12.0,0.,12.0
1979-07-20 03:32:41.300 ,7,1,0.,12.0,0.,12.0,0.,12.0,0.,12.0
1979-07-20 03:32:53.300 ,3,1,0.,12.0,0.,12.0,0.,12.0,0.,12.0
1979-07-20 03:33:05.300 ,3,1,0.,12.0,0.,12.0,0.,12.0,0.,12.0
1979-07-20 03:33:17.300 ,0,1,0.,12.0,0.,12.0,0.,12.0,0.,12.0
1979-07-20 03:33:29.300 ,0,1,0.,12.0,0.,12.0,0.,12.0,0.,12.0
1979-07-20 03:33:41.300 ,4,1,0.,12.0,0.,12.0,0.,12.0,0.,12.0
1979-07-20 03:33:53.300 ,4,1,0.,12.0,0.,12.0,0.,12.0,0.,12.0
1979-07-20 03:34:05.300 ,7,1,0.,12.0,0.,12.0,0.,12.0,0.,12.0
1979-07-20 03:34:17.300 ,7,1,0.,12.0,0.,12.0,0.,12.0,0.,12.0
1979-07-20 03:34:29.300 ,3,1,0.,12.0,0.,12.0,0.,12.0,0.,12.0
1979-07-20 03:34:41.300 ,3,1,0.,12.0,0.,12.0,0.,12.0,0.,12.0
1979-07-20 03:34:53.300 ,0,1,0.,12.0,0.,12.0,0.,12.0,0.,12.0
1979-07-20 03:35:05.300 ,0,1,0.,12.0,0.,12.0,0.,12.0,0.,12.0
1979-07-20 03:35:17.300 ,4,1,0.,12.0,0.,12.0,0.,12.0,0.,12.0
1979-07-20 03:35:29.300 ,4,1,0.,12.0,0.,12.0,0.,12.0,0.,12.0
1979-07-20 03:35:41.300 ,7,1,0.,12.0,0.,12.0,0.,12.0,0.,12.0
1979-07-20 03:35:53.300 ,7,1,0.,12.0,0.,12.0,0.,12.0,0.,12.0
1979-07-20 03:36:05.300 ,3,1,0.,12.0,0.,12.0,0.,12.0,0.,12.0
1979-07-20 03:36:17.300 ,3,1,0.,12.0,0.,12.0,0.,12.0,0.,12.0
1979-07-20 03:36:29.300 ,0,1,0.,12.0,0.,12.0,0.,12.0,0.,12.0
1979-07-20 03:36:41.300 ,0,1,0.,12.0,0.,12.0,0.,12.0,0.,12.0
1979-07-20 03:36:53.300 ,4,1,0.,12.0,0.,12.0,0.,12.0,0.,12.0
1979-07-20 03:37:05.300 ,4,1,0.,12.0,0.,12.0,0.,12.0,0.,12.0
1979-07-20 03:37:17.300 ,7,1,0.,12.0,0.,12.0,0.,12.0,0.,12.0
1979-07-20 03:37:29.300 ,7,1,0.,12.0,0.,12.0,0.,12.0,0.,12.0
1979-07-20 03:37:41.300 ,3,1,0.,12.0,0.,12.0,0.,12.0,0.,12.0
1979-07-20 03:37:53.300 ,3,1,0.,12.0,0.,12.0,0.,12.0,0.,12.0
1979-07-20 03:38:05.300 ,0,1,0.,12.0,0.,12.0,0.,12.0,0.,12.0
1979-07-20 03:38:17.300 ,0,1,0.,12.0,0.,12.0,0.,12.0,0.,12.0
1979-07-20 03:39:17.300 ,0,0,0.,12.0,0.,12.0,0.,12.0,0.,12.0
1979-07-20 03:39:29.300 ,0,0,0.,12.0,0.,12.0,0.,12.0,0.,12.0
1979-07-20 03:39:41.300 ,0,1,0.,12.0,0.,12.0,0.,12.0,0.,12.0
1979-07-20 03:39:53.300 ,0,1,0.,12.0,0.,12.0,0.,12.0,0.,12.0
1979-07-20 03:40:05.300 ,4,1,0.,12.0,0.,12.0,0.,12.0,0.,12.0
1979-07-20 03:40:17.300 ,4,1,0.,12.0,0.,12.0,0.,12.0,0.,12.0
1979-07-20 03:40:29.300 ,7,1,0.,12.0,0.,12.0,0.,12.0,0.,12.0
1979-07-20 03:40:41.300 ,7,1,0.,12.0,0.,12.0,0.,12.0,0.,12.0
1979-07-20 03:40:29.300 ,7,1,0.,12.0,0.,12.0,0.,12.0,0.,12.0
1979-07-20 03:40:41.300 ,7,1,0.,12.0,0.,12.0,0.,12.0,0.,12.0
1979-07-20 03:40:53.300 ,3,1,0.,12.0,0.,12.0,0.,12.0,0.,12.0
1979-07-20 03:41:05.300 ,3,1,0.,12.0,0.,12.0,0.,12.0,0.,12.0
1979-07-20 03:41:17.300 ,0,1,0.,12.0,0.,12.0,0.,12.0,0.,12.0
1979-07-20 03:41:29.300 ,0,1,0.,12.0,0.,12.0,0.,12.0,0.,12.0
1979-07-20 03:41:41.300 ,0,0,0.,12.0,0.,12.0,0.,12.0,0.,12.0
1979-07-20 03:41:53.300 ,0,0,0.,12.0,0.,12.0,0.,12.0,0.,12.0
1979-07-20 03:42:05.300 ,0,0,0.,12.0,0.,12.0,0.,12.0,0.,12.0
1979-07-20 03:42:17.300 ,0,0,0.,12.0,0.,12.0,0.,12.0,0.,12.0
1979-07-20 03:42:29.300 ,0,0,0.,12.0,0.,12.0,0.,12.0,0.,12.0
1979-07-20 03:42:41.300 ,0,0,0.,12.0,0.,12.0,0.,12.0,0.,12.0
1979-07-20 03:42:53.300 ,0,0,0.,12.0,0.,12.0,0.,12.0,0.,12.0
1979-07-20 03:43:05.300 ,0,0,0.,12.0,0.,12.0,0.,12.0,0.,12.0
1979-07-20 03:43:17.300 ,4,0,0.,12.0,0.,12.0,0.,12.0,0.,12.0
1979-07-20 03:43:29.300 ,4,0,0.,12.0,0.,12.0,0.,12.0,0.,12.0
1979-07-20 03:43:41.300 ,4,0,0.,12.0,0.,12.0,0.,12.0,0.,12.0
1979-07-20 03:43:53.300 ,4,0,0.,12.0,0.,12.0,0.,12.0,0.,12.0
1979-07-20 03:44:05.300 ,3,0,0.,12.0,0.,12.0,0.,12.0,0.,12.0
1979-07-20 03:44:17.300 ,3,0,0.,12.0,0.,12.0,0.,12.0,0.,12.0
1979-07-20 03:44:29.300 ,3,0,0.,12.0,0.,12.0,0.,12.0,0.,12.0
1979-07-20 03:44:41.300 ,3,0,0.,12.0,0.,12.0,0.,12.0,0.,12.0
1979-07-20 03:44:53.300 ,2,0,0.,12.0,0.,12.0,0.,12.0,0.,12.0
1979-07-20 03:45:05.300 ,2,0,0.,12.0,0.,12.0,0.,12.0,0.,12.0
1979-07-20 03:45:17.300 ,2,0,0.,12.0,0.,12.0,0.,12.0,0.,12.0
1979-07-20 03:45:29.300 ,2,0,0.,12.0,0.,12.0,0.,12.0,0.,12.0
1979-07-20 03:45:41.300 ,1,0,0.,12.0,0.,12.0,0.,12.0,0.,12.0
1979-07-20 03:45:53.300 ,1,0,0.,12.0,0.,12.0,0.,12.0,0.,12.0
1979-07-20 03:46:05.300 ,1,0,0.,12.0,0.,12.0,0.,12.0,0.,12.0
1979-07-20 03:46:17.300 ,1,0,0.,12.0,0.,12.0,0.,12.0,0.,12.0
1979-07-20 03:46:29.300 ,0,0,0.,12.0,0.,12.0,0.,12.0,0.,12.0
1979-07-20 03:46:41.300 ,0,0,0.,12.0,0.,12.0,0.,12.0,0.,12.0
1979-07-20 03:46:53.300 ,0,0,0.,12.0,0.,12.0,0.,12.0,0.,12.0
1979-07-20 03:47:05.300 ,0,0,0.,12.0,0.,12.0,0.,12.0,0.,12.0
1979-07-20 03:47:17.300 ,0,0,0.,12.0,0.,12.0,0.,12.0,0.,12.0
1979-07-20 03:47:29.300 ,0,0,0.,12.0,0.,12.0,0.,12.0,0.,12.0
1979-07-20 03:47:41.300 ,0,0,0.,12.0,0.,12.0,0.,12.0,0.,12.0
1979-07-20 03:47:53.300 ,0,0,0.,12.0,0.,12.0,0.,12.0,0.,12.0
1979-07-20 03:48:05.300 ,1,0,0.,12.0,0.,12.0,0.,12.0,0.,12.0
1979-07-20 03:48:17.300 ,1,0,0.,12.0,0.,12.0,0.,12.0,0.,12.0
1979-07-20 03:48:29.300 ,1,0,0.,12.0,0.,12.0,0.,12.0,0.,12.0
1979-07-20 03:48:41.300 ,1,0,0.,12.0,0.,12.0,0.,12.0,0.,12.0
1979-07-20 03:48:53.300 ,2,0,0.,12.0,0.,12.0,0.,12.0,0.,12.0
1979-07-20 03:49:05.300 ,2,0,0.,12.0,0.,12.0,0.,12.0,0.,12.0
1979-07-20 03:49:17.300 ,2,0,0.,12.0,0.,12.0,0.,12.0,0.,12.0
1979-07-20 03:49:29.300 ,2,0,0.,12.0,0.,12.0,0.,12.0,0.,12.0
1979-07-20 03:49:41.300 ,3,0,0.,12.0,0.,12.0,0.,12.0,0.,12.0
1979-07-20 03:49:53.300 ,3,0,0.,12.0,0.,12.0,0.,12.0,0.,12.0
1979-07-20 03:50:05.300 ,3,0,0.,12.0,0.,12.0,0.,12.0,0.,12.0
1979-07-20 03:50:17.300 ,3,0,0.,12.0,0.,12.0,0.,12.0,0.,12.0
1979-07-20 03:50:29.300 ,4,0,0.,12.0,0.,12.0,0.,12.0,0.,12.0
1979-07-20 03:50:41.300 ,4,0,0.,12.0,0.,12.0,0.,12.0,0.,12.0
1979-07-20 03:50:53.300 ,4,0,0.,12.0,0.,12.0,0.,12.0,0.,12.0
1979-07-20 03:51:05.300 ,4,0,1.,12.0,0.,12.0,0.,12.0,0.,12.0
1979-07-20 03:51:17.300 ,5,0,0.,12.0,0.,12.0,0.,12.0,0.,12.0
1979-07-20 03:51:29.300 ,5,0,0.,12.0,0.,12.0,0.,12.0,0.,12.0
1979-07-20 03:51:41.300 ,5,0,0.,12.0,0.,12.0,0.,12.0,0.,12.0
1979-07-20 03:51:53.300 ,5,0,0.,12.0,0.,12.0,0.,12.0,0.,12.0
1979-07-20 03:52:05.300 ,6,0,0.,12.0,0.,12.0,0.,12.0,0.,12.0
1979-07-20 03:52:17.300 ,6,0,0.,12.0,0.,12.0,0.,12.0,0.,12.0
1979-07-20 03:52:29.300 ,6,0,0.,12.0,0.,12.0,0.,12.0,0.,12.0
1979-07-20 03:52:41.300 ,6,0,0.,12.0,0.,12.0,0.,12.0,0.,12.0
1979-07-20 03:52:53.300 ,7,0,0.,12.0,0.,12.0,0.,12.0,0.,12.0
1979-07-20 03:53:05.300 ,7,0,0.,12.0,0.,12.0,0.,12.0,0.,12.0
1979-07-20 03:53:17.300 ,7,0,0.,12.0,0.,12.0,0.,12.0,0.,12.0
1979-07-20 03:53:29.300 ,7,0,0.,12.0,0.,12.0,0.,12.0,0.,12.0
1979-07-20 03:53:41.300 ,7,0,0.,12.0,0.,12.0,0.,12.0,0.,12.0
1979-07-20 03:53:53.300 ,7,0,0.,12.0,0.,12.0,0.,12.0,0.,12.0
1979-07-20 03:54:05.300 ,7,0,0.,12.0,0.,12.0,0.,12.0,0.,12.0
1979-07-20 03:54:17.300 ,7,0,0.,12.0,0.,12.0,0.,12.0,0.,12.0
1979-07-20 03:54:29.300 ,6,0,0.,12.0,0.,12.0,0.,12.0,0.,12.0
1979-07-20 03:54:41.300 ,6,0,0.,12.0,0.,12.0,0.,12.0,0.,12.0
1979-07-20 03:54:53.300 ,6,0,0.,12.0,0.,12.0,0.,12.0,0.,12.0
1979-07-20 03:55:05.300 ,6,0,0.,12.0,0.,12.0,0.,12.0,0.,12.0
1979-07-20 03:55:17.300 ,5,0,0.,12.0,0.,12.0,0.,12.0,0.,12.0
1979-07-20 03:55:29.300 ,5,0,0.,12.0,0.,12.0,0.,12.0,0.,12.0
1979-07-20 03:55:41.300 ,5,0,0.,12.0,0.,12.0,0.,12.0,0.,12.0
1979-07-20 03:55:53.300 ,5,0,0.,12.0,0.,12.0,0.,12.0,0.,12.0
1979-07-20 03:56:05.300 ,4,0,0.,12.0,0.,12.0,0.,12.0,0.,12.0
1979-07-20 03:56:17.300 ,4,0,0.,12.0,0.,12.0,0.,12.0,0.,12.0
1979-07-20 03:56:29.300 ,4,0,0.,12.0,0.,12.0,0.,12.0,0.,12.0
1979-07-20 03:56:41.300 ,4,0,0.,12.0,0.,12.0,0.,12.0,0.,12.0
1979-07-20 03:56:53.300 ,3,0,0.,12.0,0.,12.0,0.,12.0,0.,12.0
1979-07-20 03:57:05.300 ,3,0,0.,12.0,0.,12.0,0.,12.0,0.,12.0
1979-07-20 03:57:17.300 ,3,0,0.,12.0,0.,12.0,0.,12.0,0.,12.0
1979-07-20 03:57:29.300 ,3,0,0.,12.0,0.,12.0,0.,12.0,0.,12.0
1979-07-20 03:57:41.300 ,2,0,0.,12.0,0.,12.0,0.,12.0,0.,12.0
1979-07-20 03:57:53.300 ,2,0,0.,12.0,0.,12.0,0.,12.0,0.,12.0
1979-07-20 03:58:05.300 ,2,0,0.,12.0,0.,12.0,0.,12.0,0.,12.0
1979-07-20 03:58:17.300 ,2,0,0.,12.0,0.,12.0,0.,12.0,0.,12.0
1979-07-20 03:58:29.300 ,1,0,0.,12.0,0.,12.0,0.,12.0,0.,12.0
1979-07-20 03:58:41.300 ,1,0,0.,12.0,0.,12.0,0.,12.0,0.,12.0
1979-07-20 03:58:53.300 ,1,0,0.,12.0,0.,12.0,0.,12.0,0.,12.0
1979-07-20 03:59:05.300 ,1,0,0.,12.0,0.,12.0,0.,12.0,0.,12.0
1979-07-20 03:59:17.300 ,0,0,0.,12.0,0.,12.0,0.,12.0,0.,12.0
1979-07-20 03:59:29.300 ,0,0,0.,12.0,0.,12.0,0.,12.0,0.,12.0
1979-07-20 03:59:41.300 ,0,0,0.,12.0,0.,12.0,0.,12.0,0.,12.0
1979-07-20 03:59:53.300 ,0,0,0.,12.0,0.,12.0,0.,12.0,0.,12.0
1979-07-20 04:00:05.300 ,0,0,0.,12.0,0.,12.0,0.,12.0,0.,12.0
1979-07-20 04:00:17.300 ,0,0,0.,12.0,0.,12.0,0.,12.0,0.,12.0
1979-07-20 04:00:29.300 ,0,0,0.,12.0,0.,12.0,0.,12.0,0.,12.0
1979-07-20 04:00:41.300 ,0,0,0.,12.0,0.,12.0,0.,12.0,0.,12.0
1979-07-20 04:00:53.300 ,1,0,0.,12.0,0.,12.0,0.,12.0,0.,12.0
1979-07-20 04:01:05.300 ,1,0,0.,12.0,0.,12.0,0.,12.0,0.,12.0
1979-07-20 04:01:17.300 ,1,0,0.,12.0,0.,12.0,0.,12.0,0.,12.0
1979-07-20 04:01:29.300 ,1,0,0.,12.0,0.,12.0,0.,12.0,0.,12.0
1979-07-20 04:01:41.300 ,2,0,0.,12.0,0.,12.0,0.,12.0,0.,12.0
1979-07-20 04:01:53.300 ,2,0,0.,12.0,0.,12.0,0.,12.0,0.,12.0
1979-07-20 04:02:05.300 ,2,0,0.,12.0,0.,12.0,0.,12.0,0.,12.0
1979-07-20 04:02:17.300 ,2,0,0.,12.0,0.,12.0,0.,12.0,0.,12.0
1979-07-20 04:02:29.300 ,3,0,0.,12.0,0.,12.0,0.,12.0,0.,12.0
1979-07-20 04:02:41.300 ,3,0,0.,12.0,0.,12.0,0.,12.0,0.,12.0
1979-07-20 04:02:53.300 ,3,0,0.,12.0,0.,12.0,0.,12.0,0.,12.0
1979-07-20 04:03:05.300 ,3,0,0.,12.0,0.,12.0,0.,12.0,0.,12.0
1979-07-20 04:03:17.300 ,4,0,0.,12.0,0.,12.0,0.,12.0,0.,12.0
1979-07-20 04:03:29.300 ,4,0,0.,12.0,0.,12.0,0.,12.0,0.,12.0
1979-07-20 04:03:41.300 ,4,0,0.,12.0,0.,12.0,0.,12.0,0.,12.0
1979-07-20 04:03:53.300 ,4,0,0.,12.0,0.,12.0,0.,12.0,0.,12.0
1979-07-20 04:04:05.300 ,5,0,0.,12.0,0.,12.0,0.,12.0,0.,12.0
1979-07-20 04:04:17.300 ,5,0,0.,12.0,0.,12.0,0.,12.0,0.,12.0
1979-07-20 04:04:29.300 ,5,0,0.,12.0,0.,12.0,0.,12.0,0.,12.0
1979-07-20 04:04:41.300 ,5,0,0.,12.0,0.,12.0,0.,12.0,0.,12.0
1979-07-20 04:04:53.300 ,6,0,0.,12.0,0.,12.0,0.,12.0,0.,12.0
1979-07-20 04:05:05.300 ,6,0,0.,12.0,0.,12.0,0.,12.0,0.,12.0
1979-07-20 04:05:17.300 ,6,0,0.,12.0,0.,12.0,0.,12.0,0.,12.0
1979-07-20 04:05:29.300 ,6,0,0.,12.0,0.,12.0,0.,12.0,0.,12.0
1979-07-20 04:05:41.300 ,7,0,0.,12.0,0.,12.0,0.,12.0,0.,12.0
1979-07-20 04:05:53.300 ,7,0,0.,12.0,0.,12.0,0.,12.0,0.,12.0
1979-07-20 04:06:05.300 ,7,0,0.,12.0,0.,12.0,0.,12.0,0.,12.0
1979-07-20 04:06:17.300 ,7,0,0.,12.0,0.,12.0,0.,12.0,0.,12.0
1979-07-20 04:06:29.300 ,7,0,0.,12.0,0.,12.0,0.,12.0,0.,12.0
1979-07-20 04:06:41.300 ,7,0,0.,12.0,0.,12.0,0.,12.0,0.,12.0
1979-07-20 04:06:53.300 ,7,0,0.,12.0,0.,12.0,0.,12.0,0.,12.0
1979-07-20 04:07:05.300 ,7,0,0.,12.0,0.,12.0,0.,12.0,0.,12.0
1979-07-20 04:07:17.300 ,6,0,0.,12.0,0.,12.0,0.,12.0,0.,12.0
1979-07-20 04:07:29.300 ,6,0,0.,12.0,0.,12.0,0.,12.0,0.,12.0
1979-07-20 04:07:41.300 ,6,0,0.,12.0,0.,12.0,0.,12.0,0.,12.0
1979-07-20 04:07:53.300 ,6,0,0.,12.0,0.,12.0,0.,12.0,0.,12.0
1979-07-20 04:08:05.300 ,5,0,0.,12.0,0.,12.0,0.,12.0,0.,12.0
1979-07-20 04:08:17.300 ,5,0,0.,12.0,0.,12.0,0.,12.0,0.,12.0
1979-07-20 04:08:29.300 ,5,0,0.,12.0,0.,12.0,0.,12.0,0.,12.0
1979-07-20 04:08:41.300 ,5,0,0.,12.0,0.,12.0,0.,12.0,0.,12.0
1979-07-20 04:08:53.300 ,4,0,0.,12.0,0.,12.0,0.,12.0,0.,12.0
1979-07-20 04:09:05.300 ,4,0,0.,12.0,0.,12.0,0.,12.0,0.,12.0
1979-07-20 04:09:17.300 ,4,0,0.,12.0,0.,12.0,0.,12.0,0.,12.0
1979-07-20 04:09:29.300 ,4,0,0.,12.0,0.,12.0,0.,12.0,0.,12.0
1979-07-20 04:09:41.300 ,3,0,0.,12.0,0.,12.0,0.,12.0,0.,12.0
1979-07-20 04:09:53.300 ,3,0,0.,12.0,0.,12.0,0.,12.0,0.,12.0
1979-07-20 04:10:05.300 ,3,0,0.,12.0,0.,12.0,0.,12.0,0.,12.0
1979-07-20 04:10:17.300 ,3,0,0.,12.0,0.,12.0,0.,12.0,0.,12.0
1979-07-20 04:10:29.300 ,2,0,0.,12.0,0.,12.0,0.,12.0,0.,12.0
1979-07-20 04:10:41.300 ,2,0,0.,12.0,0.,12.0,0.,12.0,0.,12.0
1979-07-20 04:10:53.300 ,2,0,0.,12.0,0.,12.0,0.,12.0,0.,12.0
1979-07-20 04:11:05.300 ,2,0,0.,12.0,0.,12.0,0.,12.0,0.,12.0
1979-07-20 04:11:17.300 ,1,0,0.,12.0,0.,12.0,0.,12.0,0.,12.0
1979-07-20 04:11:29.300 ,1,0,0.,12.0,0.,12.0,0.,12.0,0.,12.0
1979-07-20 04:11:41.300 ,1,0,0.,12.0,0.,12.0,0.,12.0,0.,12.0
1979-07-20 04:11:53.300 ,1,0,0.,12.0,0.,12.0,0.,12.0,0.,12.0
1979-07-20 04:12:05.300 ,0,0,0.,12.0,0.,12.0,0.,12.0,0.,12.0
1979-07-20 04:12:17.300 ,0,0,0.,12.0,0.,12.0,0.,12.0,0.,12.0
1979-07-20 04:12:29.300 ,0,0,0.,12.0,0.,12.0,0.,12.0,0.,12.0
1979-07-20 04:12:41.300 ,0,0,0.,12.0,0.,12.0,0.,12.0,0.,12.0
1979-07-20 04:12:53.300 ,0,0,0.,12.0,0.,12.0,0.,12.0,0.,12.0
1979-07-20 04:13:05.300 ,0,0,0.,12.0,0.,12.0,0.,12.0,0.,12.0
1979-07-20 04:13:17.300 ,0,0,0.,12.0,0.,12.0,0.,12.0,0.,12.0
1979-07-20 04:13:29.300 ,0,0,0.,12.0,0.,12.0,0.,12.0,0.,12.0
1979-07-20 04:13:41.300 ,1,0,0.,12.0,0.,12.0,0.,12.0,0.,12.0
1979-07-20 04:13:53.300 ,1,0,0.,12.0,0.,12.0,0.,12.0,0.,12.0
1979-07-20 04:14:05.300 ,1,0,0.,12.0,0.,12.0,0.,12.0,0.,12.0
1979-07-20 04:14:17.300 ,1,0,0.,12.0,0.,12.0,0.,12.0,0.,12.0
1979-07-20 04:14:29.300 ,2,0,0.,12.0,0.,12.0,0.,12.0,0.,12.0
1979-07-20 04:14:41.300 ,2,0,0.,12.0,0.,12.0,0.,12.0,0.,12.0
1979-07-20 04:14:53.300 ,2,0,0.,12.0,0.,12.0,0.,12.0,0.,12.0
1979-07-20 04:15:05.300 ,2,0,0.,12.0,0.,12.0,0.,12.0,0.,12.0
1979-07-20 04:15:17.300 ,3,0,0.,12.0,0.,12.0,0.,12.0,0.,12.0
1979-07-20 04:15:29.300 ,3,0,0.,12.0,0.,12.0,0.,12.0,0.,12.0
1979-07-20 04:15:41.300 ,3,0,0.,12.0,0.,12.0,0.,12.0,0.,12.0
1979-07-20 04:15:53.300 ,3,0,0.,12.0,0.,12.0,0.,12.0,0.,12.0
1979-07-20 04:16:05.300 ,4,0,0.,12.0,0.,12.0,0.,12.0,0.,12.0
1979-07-20 04:16:17.300 ,4,0,0.,12.0,0.,12.0,0.,12.0,0.,12.0
1979-07-20 04:16:29.300 ,4,0,0.,12.0,0.,12.0,0.,12.0,0.,12.0
1979-07-20 04:16:41.300 ,4,0,0.,12.0,0.,12.0,0.,12.0,0.,12.0
1979-07-20 04:16:53.300 ,5,0,0.,12.0,0.,12.0,0.,12.0,0.,12.0
1979-07-20 04:17:05.300 ,5,0,0.,12.0,0.,12.0,0.,12.0,0.,12.0
1979-07-20 04:17:17.300 ,5,0,0.,12.0,0.,12.0,0.,12.0,0.,12.0
1979-07-20 04:17:29.300 ,5,0,0.,12.0,0.,12.0,0.,12.0,0.,12.0
1979-07-20 04:17:41.300 ,6,0,0.,12.0,0.,12.0,0.,12.0,0.,12.0
1979-07-20 04:17:53.300 ,6,0,0.,12.0,0.,12.0,0.,12.0,0.,12.0